NOZ2NU ENGM-EIDW

Flight info

Callsign NOZ2NU
Flight time N/A
Altitude 40000
Route ATLAP DCT ALOTI DCT NELBO DCT NIMAT NIMAT4L
Aircraft B38M/M-SDE1FGHILORVWXY/HB1

Departure

Time 2026-05-01 09:47
Airport Oslo-Gardermoen International Airport (ENGM)

Arrival

Time N/A
Airport Dublin Airport (EIDW)
Time Latitude Longitude Altitude Speed Heading
2026-05-01 09:01 60.19405 11.10833 687 ft 0 kts 196°
2026-05-01 09:39 60.19408 11.10834 679 ft 2 kts 196°
2026-05-01 09:40 60.19431 11.10848 684 ft 4 kts 196°
2026-05-01 09:40 60.19471 11.10853 680 ft 4 kts 120°
2026-05-01 09:40 60.19480 11.10806 683 ft 4 kts 106°
2026-05-01 09:41 60.19487 11.10755 682 ft 4 kts 106°
2026-05-01 09:41 60.19490 11.10737 681 ft 2 kts 106°
2026-05-01 09:43 60.19479 11.10815 680 ft 6 kts 106°
2026-05-01 09:43 60.19463 11.10926 682 ft 10 kts 107°
2026-05-01 09:43 60.19442 11.11070 686 ft 12 kts 105°
2026-05-01 09:44 60.19541 11.11353 685 ft 18 kts 17°
2026-05-01 09:44 60.19667 11.11425 681 ft 20 kts 18°
2026-05-01 09:44 60.19802 11.11500 687 ft 21 kts 14°
2026-05-01 09:45 60.19943 11.11586 685 ft 22 kts 15°
2026-05-01 09:45 60.20103 11.11753 686 ft 5 kts 95°
2026-05-01 09:45 60.20079 11.11840 683 ft 9 kts 114°
2026-05-01 09:46 60.20060 11.11947 689 ft 7 kts 107°
2026-05-01 09:46 60.20044 11.12044 690 ft 11 kts 110°
2026-05-01 09:46 60.19943 11.12145 691 ft 22 kts 193°
2026-05-01 09:46 60.19907 11.12123 690 ft 22 kts 197°
2026-05-01 09:47 60.19474 11.11874 682 ft 105 kts 196°
2026-05-01 09:47 60.18535 11.11332 697 ft 172 kts 195°
2026-05-01 09:47 60.17269 11.10589 1275 ft 200 kts 197°
2026-05-01 09:47 60.15845 11.09707 2037 ft 231 kts 199°
2026-05-01 09:48 60.14222 11.08737 2802 ft 250 kts 194°
2026-05-01 09:48 60.12516 11.07989 3911 ft 258 kts 197°
2026-05-01 09:48 60.10762 11.07129 5048 ft 257 kts 197°
2026-05-01 09:48 60.09028 11.06215 6172 ft 257 kts 209°
2026-05-01 09:49 60.07731 11.03941 7277 ft 249 kts 241°
2026-05-01 09:49 60.07130 11.00684 8284 ft 253 kts 253°
2026-05-01 09:49 60.06395 10.97469 9289 ft 256 kts 241°
2026-05-01 09:49 60.05522 10.94325 10285 ft 261 kts 243°
2026-05-01 09:50 60.04662 10.91070 10979 ft 276 kts 244°
2026-05-01 09:50 60.03748 10.87543 11539 ft 293 kts 244°
2026-05-01 09:50 60.02797 10.83841 12232 ft 304 kts 244°
2026-05-01 09:50 60.01841 10.80077 13200 ft 305 kts 245°
2026-05-01 09:51 60.00882 10.76281 14173 ft 307 kts 245°
2026-05-01 09:51 59.99920 10.72453 15020 ft 310 kts 245°
2026-05-01 09:51 59.98948 10.68585 15850 ft 313 kts 245°
2026-05-01 09:51 59.97964 10.64676 16668 ft 317 kts 245°
2026-05-01 09:52 59.96969 10.60724 17515 ft 320 kts 244°
2026-05-01 09:52 59.95963 10.56734 18320 ft 323 kts 244°
2026-05-01 09:52 59.94949 10.52718 19014 ft 326 kts 244°
2026-05-01 09:52 59.93920 10.48652 19667 ft 330 kts 244°
2026-05-01 09:53 59.92880 10.44546 20315 ft 334 kts 244°
2026-05-01 09:53 59.91825 10.40396 20922 ft 337 kts 244°
2026-05-01 09:53 59.90758 10.36197 21557 ft 341 kts 244°
2026-05-01 09:53 59.89690 10.32009 22154 ft 345 kts 244°
2026-05-01 09:54 59.88597 10.27727 22789 ft 349 kts 244°
2026-05-01 09:54 59.87489 10.23395 23392 ft 352 kts 244°
2026-05-01 09:54 59.86370 10.19030 23941 ft 356 kts 244°
2026-05-01 09:54 59.85236 10.14617 24425 ft 359 kts 244°
2026-05-01 09:55 59.84093 10.10177 24925 ft 362 kts 244°
2026-05-01 09:55 59.82939 10.05700 25403 ft 366 kts 244°
2026-05-01 09:55 59.81771 10.01180 25869 ft 369 kts 244°
2026-05-01 09:55 59.80593 9.96631 26348 ft 372 kts 244°
2026-05-01 09:56 59.79406 9.92052 26781 ft 375 kts 244°
2026-05-01 09:56 59.78215 9.87472 27204 ft 380 kts 244°
2026-05-01 09:56 59.77001 9.82812 27699 ft 381 kts 244°
2026-05-01 09:56 59.75777 9.78121 28143 ft 384 kts 244°
2026-05-01 09:57 59.74539 9.73390 28569 ft 387 kts 244°
2026-05-01 09:57 59.73293 9.68638 28998 ft 390 kts 244°
2026-05-01 09:57 59.72034 9.63845 29392 ft 393 kts 244°
2026-05-01 09:57 59.70763 9.59016 29832 ft 396 kts 244°
2026-05-01 09:58 59.69483 9.54165 30237 ft 399 kts 244°
2026-05-01 09:58 59.68192 9.49282 30578 ft 402 kts 244°
2026-05-01 09:58 59.66890 9.44370 30940 ft 403 kts 244°
2026-05-01 09:58 59.65584 9.39449 31304 ft 405 kts 244°
2026-05-01 09:59 59.64270 9.34512 31662 ft 407 kts 243°
2026-05-01 09:59 59.62943 9.29539 32008 ft 409 kts 243°
2026-05-01 09:59 59.61611 9.24552 32373 ft 411 kts 243°
2026-05-01 09:59 59.60273 9.19558 32777 ft 411 kts 243°
2026-05-01 10:00 59.58938 9.14576 33310 ft 409 kts 243°
2026-05-01 10:00 59.57610 9.09630 33843 ft 406 kts 243°
2026-05-01 10:00 59.56288 9.04713 34276 ft 406 kts 243°
2026-05-01 10:00 59.54975 8.99851 34546 ft 408 kts 243°
2026-05-01 10:01 59.53624 8.94856 34898 ft 408 kts 243°
2026-05-01 10:01 59.52305 8.89992 35249 ft 408 kts 243°
2026-05-01 10:01 59.50951 8.85007 35619 ft 407 kts 243°
2026-05-01 10:01 59.49632 8.80162 35966 ft 407 kts 243°
2026-05-01 10:02 59.48295 8.75262 36309 ft 406 kts 243°
2026-05-01 10:02 59.46955 8.70357 36634 ft 406 kts 243°
2026-05-01 10:02 59.46067 8.67117 36855 ft 406 kts 243°
2026-05-01 10:02 59.45084 8.63534 37053 ft 407 kts 243°
2026-05-01 10:03 59.43740 8.58650 37380 ft 406 kts 243°
2026-05-01 10:03 59.42398 8.53780 37693 ft 405 kts 243°
2026-05-01 10:03 59.41053 8.48914 38000 ft 405 kts 243°
2026-05-01 10:03 59.39706 8.44049 38250 ft 406 kts 243°
2026-05-01 10:04 59.37006 8.34333 38243 ft 403 kts 242°
2026-05-01 10:04 59.34331 8.24744 38258 ft 403 kts 242°
2026-05-01 10:05 59.31629 8.15095 38290 ft 405 kts 242°
2026-05-01 10:05 59.29002 8.05759 38275 ft 405 kts 242°
2026-05-01 10:06 59.26352 7.96406 38226 ft 405 kts 242°
2026-05-01 10:06 59.24970 7.91600 38067 ft 405 kts 241°
2026-05-01 10:06 59.23587 7.86824 37759 ft 404 kts 241°
2026-05-01 10:07 59.22204 7.82055 37314 ft 403 kts 241°
2026-05-01 10:07 59.20825 7.77285 36846 ft 403 kts 241°
2026-05-01 10:07 59.19457 7.72519 36475 ft 402 kts 242°
2026-05-01 10:07 59.18111 7.67728 36392 ft 402 kts 242°
2026-05-01 10:08 59.15954 7.59799 37090 ft 393 kts 243°
2026-05-01 10:08 59.14339 7.53586 37916 ft 383 kts 244°
2026-05-01 10:08 59.13176 7.48894 38094 ft 386 kts 245°
2026-05-01 10:09 59.12034 7.44080 37838 ft 397 kts 246°
2026-05-01 10:09 59.11288 7.40831 37584 ft 401 kts 246°
2026-05-01 10:09 59.10170 7.35776 37067 ft 403 kts 247°
2026-05-01 10:09 59.09121 7.30800 36580 ft 403 kts 248°
2026-05-01 10:10 59.08104 7.25718 36250 ft 404 kts 249°
2026-05-01 10:10 59.05366 7.10445 37477 ft 386 kts 252°
2026-05-01 10:11 59.04582 7.05494 37945 ft 383 kts 253°
2026-05-01 10:11 59.03843 7.00474 37890 ft 392 kts 253°
2026-05-01 10:11 59.03206 6.95806 37521 ft 402 kts 255°
2026-05-01 10:11 59.02569 6.90782 37038 ft 405 kts 256°
2026-05-01 10:12 59.01945 6.85447 36538 ft 405 kts 256°
2026-05-01 10:12 59.01486 6.81193 36268 ft 405 kts 257°
2026-05-01 10:12 59.00482 6.70454 36674 ft 400 kts 259°
2026-05-01 10:13 58.99836 6.65231 36945 ft 400 kts 247°
2026-05-01 10:13 58.98571 6.60424 37143 ft 401 kts 242°
2026-05-01 10:13 58.97185 6.56021 37335 ft 403 kts 236°
2026-05-01 10:14 58.94063 6.46946 37752 ft 407 kts 237°
2026-05-01 10:14 58.92766 6.43141 37918 ft 409 kts 237°
2026-05-01 10:14 58.91196 6.38536 38110 ft 410 kts 237°
2026-05-01 10:14 58.89627 6.33939 38290 ft 410 kts 237°
2026-05-01 10:15 58.86761 6.24402 38331 ft 409 kts 240°
2026-05-01 10:15 58.83945 6.14780 38296 ft 411 kts 240°
2026-05-01 10:16 58.81129 6.05276 38319 ft 411 kts 240°
2026-05-01 10:17 58.76858 5.90944 38299 ft 411 kts 240°
2026-05-01 10:17 58.72567 5.76638 38300 ft 411 kts 240°
2026-05-01 10:18 58.68267 5.62386 38315 ft 411 kts 239°
2026-05-01 10:19 58.65393 5.52909 38313 ft 411 kts 239°
2026-05-01 10:19 58.62589 5.43702 38306 ft 411 kts 239°
2026-05-01 10:20 58.58626 5.30750 38307 ft 411 kts 239°
2026-05-01 10:20 58.56116 5.22582 38298 ft 411 kts 239°
2026-05-01 10:21 58.51751 5.08447 38301 ft 411 kts 239°
2026-05-01 10:22 58.47603 4.95096 38295 ft 411 kts 239°
2026-05-01 10:23 58.43209 4.81033 38287 ft 411 kts 239°
2026-05-01 10:23 58.38802 4.67012 38266 ft 411 kts 239°
2026-05-01 10:24 58.32900 4.48365 38282 ft 412 kts 238°
2026-05-01 10:25 58.26956 4.29736 38283 ft 412 kts 238°
2026-05-01 10:26 58.23967 4.20423 38272 ft 412 kts 238°
2026-05-01 10:27 58.18022 4.02009 38265 ft 412 kts 238°
2026-05-01 10:28 58.13542 3.88227 38233 ft 413 kts 238°
2026-05-01 10:28 58.09018 3.74390 38253 ft 414 kts 238°
2026-05-01 10:29 58.04457 3.60522 38248 ft 414 kts 237°
2026-05-01 10:30 57.98355 3.42093 38244 ft 414 kts 237°
2026-05-01 10:31 57.92231 3.23742 38244 ft 414 kts 237°
2026-05-01 10:32 57.87618 3.10011 38216 ft 415 kts 237°
2026-05-01 10:33 57.81419 2.91685 38235 ft 415 kts 236°
2026-05-01 10:34 57.76755 2.77986 38223 ft 416 kts 236°
2026-05-01 10:34 57.73714 2.69101 38225 ft 416 kts 236°
2026-05-01 10:35 57.69023 2.55451 38219 ft 416 kts 236°
2026-05-01 10:35 57.65891 2.46383 38220 ft 416 kts 236°
2026-05-01 10:36 57.61173 2.32789 38211 ft 416 kts 236°
2026-05-01 10:37 57.58006 2.23707 38211 ft 418 kts 236°
2026-05-01 10:37 57.53269 2.10185 38214 ft 417 kts 236°
2026-05-01 10:38 57.50087 2.01146 38213 ft 417 kts 236°
2026-05-01 10:38 57.46901 1.92128 38214 ft 417 kts 235°
2026-05-01 10:39 57.44546 1.85486 38209 ft 417 kts 235°
2026-05-01 10:39 57.41390 1.76611 38223 ft 417 kts 235°
2026-05-01 10:40 57.38192 1.67652 38217 ft 416 kts 235°
2026-05-01 10:40 57.34986 1.58702 38206 ft 417 kts 235°
2026-05-01 10:41 57.31763 1.49743 38201 ft 418 kts 235°
2026-05-01 10:42 57.26942 1.36400 38198 ft 418 kts 235°
2026-05-01 10:42 57.23706 1.27485 38197 ft 418 kts 235°
2026-05-01 10:43 57.20464 1.18584 38209 ft 418 kts 235°
2026-05-01 10:43 57.17215 1.09701 38188 ft 416 kts 234°
2026-05-01 10:44 57.13968 1.00853 38188 ft 417 kts 234°
2026-05-01 10:44 57.10717 0.92027 38180 ft 417 kts 234°
2026-05-01 10:45 57.07449 0.83188 38197 ft 419 kts 234°
2026-05-01 10:45 57.04186 0.74396 38195 ft 419 kts 234°
2026-05-01 10:46 57.00899 0.65568 38186 ft 419 kts 234°
2026-05-01 10:46 56.97638 0.56845 38203 ft 419 kts 234°
2026-05-01 10:47 56.94341 0.48057 38187 ft 418 kts 234°
2026-05-01 10:47 56.91085 0.39409 38183 ft 418 kts 234°
2026-05-01 10:48 56.87801 0.30717 38179 ft 418 kts 234°
2026-05-01 10:48 56.84487 0.21978 38183 ft 418 kts 234°
2026-05-01 10:49 56.81366 0.13776 38188 ft 420 kts 234°
2026-05-01 10:49 56.78028 0.05036 38182 ft 419 kts 234°
2026-05-01 10:50 56.74687 -0.03682 38190 ft 419 kts 233°
2026-05-01 10:50 56.71349 -0.12360 38179 ft 418 kts 233°
2026-05-01 10:51 56.68007 -0.21018 38180 ft 418 kts 233°
2026-05-01 10:51 56.64659 -0.29659 38176 ft 418 kts 233°
2026-05-01 10:52 56.61307 -0.38281 38181 ft 418 kts 233°